Location: B?jaj?g
(11.7167°N, 92.6667°E)
Time: 11:06:10
(UTC+00:00)

GPS 2-15 Rocket1 - Pass Details

Date: 18 September 2020
Orbit: 624 x 675 km, 19.8° (Epoch: 23 October)

Event Time Altitude Azimuth Distance (km) Brightness Sun altitude
Exits shadow 22:34:23 18° 313° (NW) 1,537 4.7 -16.5°
Maximum altitude 22:36:58 29° 1° (N) 1,128 4.4 -15.9°
Drops below altitude 10° 22:41:01 10° 63° (ENE) 1,977 6.7 -14.9°
Sets 22:43:37 0° 74° (ENE) 2,882 8.2 -14.3°
